Snowfall_Accumulation
0.0 0.0 0.0 0.0 0.0 0.0 0.0 0.0 0.0 0.0 0.0 0.0 0.0 0.0 0.0 0.0 0.0 0.0 0.0 0.0 0.0 0.0 0.0 0.0 0.0 0.0 0.0 0.0 0.0 0.0 0.0 0.0 0.0 0.0 0.0 0.0 0.0 0.0 0.0 0.0 0.0 0.0 0.0 0.0 0.0 0.0 0.0 0.0 0.0 0.0 0.0 0.0 0.0 0.0 0.0 0.0 0.0 0.0 0.0 0.0 0.0 0.0 0.0 0.0 0.0 0.0 0.0 0.0 0.0 0.0 0.0 0.0 0.0 0.0 0.0 0.0 0.0 0.0 0.0 0.0 0.0 0.0 0.0 0.0 0.0 0.0 0.0 0.0
0.0 0.0 0.0 0.0 0.0 0.0 0.0 0.0 0.0 0.0 0.0 0.0 0.0 0.0 0.0 0.0 0.0 0.0 0.0 0.0 0.0 0.0 0.0 0.0 0.0 0.0 0.0 0.0 0.0 0.0 0.0 0.0 0.0 0.0 0.0 0.0 0.0 0.0 0.0 0.0 0.0 0.0 0.0 0.0 0.0 0.0 0.0 0.0 0.0 0.0 0.0 0.0 0.0 0.0 0.0 0.0 0.0 0.0 0.0 0.0 0.0 0.0 0.0 0.0 0.0 0.0 0.0 0.0 0.0 0.0 0.0 0.0 0.0 0.0 0.0 0.0 0.0 0.0 0.0 0.0 0.0 0.0 0.0 0.0 0.0 0.0 0.0 0.0
0.0 0.0 0.0 0.0 0.0 0.0 0.0 0.0 0.0 0.0 0.0 0.0 0.0 0.0 0.0 0.0 0.0 0.0 0.0 0.0 0.0 0.0 0.0 0.0 0.0 0.0 0.0 0.0 0.0 0.0 0.0 0.0 0.0 0.0 0.0 0.0 0.0 0.0 0.0 0.0 0.0 0.0 0.0 0.0 0.0 0.0 0.0 0.0 0.0 0.0 0.0 0.0 0.0 0.0 0.0 0.0 0.0 0.0 0.0 0.0 0.0 0.0 0.0 0.0 0.0 0.0 0.0 0.0 0.0 0.0 0.0 0.0 0.0 0.0 0.0 0.0 0.0 0.0 0.0 0.0 0.0 0.0 0.0 0.0 0.0 0.0 0.0 0.0
0.0 0.0 0.0 0.0 0.0 0.0 0.0 0.0 0.0 0.0 0.0 0.0 0.0 0.0 0.0 0.0 0.0 0.0 0.0 0.0 0.0 0.0 0.0 0.0 0.0 0.0 0.0 0.0 0.0 0.0 0.0 0.0 0.0 0.0 0.0 0.0 0.0 0.0 0.0 0.0 0.0 0.0 0.0 0.0 0.0 0.0 0.0 0.0 0.0 0.0 0.0 0.0 0.0 0.0 0.0 0.0 0.0 0.0 0.0 0.0 0.0 0.0 0.0 0.0 0.0 0.0 0.0 0.0 0.0 0.0 0.0 0.0 0.0 0.0 0.0 0.0 0.0 0.0 0.0 0.0 0.0 0.0 0.0 0.0 0.0 0.0 0.0 0.0
0.0 0.0 0.0 0.0 0.0 0.0 0.0 0.0 0.0 0.0 0.0 0.0 0.0 0.0 0.0 0.0 0.0 0.0 0.0 0.0 0.0 0.0 0.0 0.0 0.0 0.0 0.0 0.0 0.0 0.0 0.0 0.0 0.0 0.0 0.0 0.0 0.0 0.0 0.0 0.0 0.0 0.0 0.0 0.0 0.0 0.0 0.0 0.0 0.0 0.0 0.0 0.0 0.0 0.0 0.0 0.0 0.0 0.0 0.0 0.0 0.0 0.0 0.0 0.0 0.0 0.0 0.0 0.0 0.0 0.0 0.0 0.0 0.0 0.0 0.0 0.0 0.0 0.0 0.0 0.0 0.0 0.0 0.0 0.0 0.0 0.0 0.0 0.0
0.0 0.0 0.0 0.0 0.0 0.0 0.0 0.0 0.0 0.0 0.0 0.0 0.0 0.0 0.0 0.0 0.0 0.0 0.0 0.0 0.0 0.0 0.0 0.0 0.0 0.0 0.0 0.0 0.0 0.0 0.0 0.0 0.0 0.0 0.0 0.0 0.0 0.0 0.0 0.0 0.0 0.0 0.0 0.0 0.0 0.0 0.0 0.0 0.0 0.0 0.0 0.0 0.0 0.0 0.0 0.0 0.0 0.0 0.0 0.0 0.0 0.0 0.0 0.0 0.0 0.0 0.0 0.0 0.0 0.0 0.0 0.0 0.0 0.0 0.0 0.0 0.0 0.0 0.0 0.0 0.0 0.0 0.0 0.0 0.0 0.0 0.0 0.0
0.0 0.0 0.0 0.0 0.0 0.0 0.0 0.0 0.0 0.0 0.0 0.0 0.0 0.0 0.0 0.0 0.0 0.0 0.0 0.0 0.0 0.0 0.0 0.0 0.0 0.0 0.0 0.0 0.0 0.0 0.0 0.0 0.0 0.0 0.0 0.0 0.0 0.0 0.0 0.0 0.0 0.0 0.0 0.0 0.0 0.0 0.0 0.0 0.0 0.0 0.0 0.0 0.0 0.0 0.0 0.0 0.0 0.0 0.0 0.0 0.0 0.0 0.0 0.0 0.0 0.0 0.0 0.0 0.0 0.0 0.0 0.0 0.0 0.0 0.0 0.0 0.0 0.0 0.0 0.0 0.0 0.0 0.0 0.0 0.0 0.0 0.0 0.0
0.0 0.0 0.0 0.0 0.0 0.0 0.0 0.0 0.0 0.0 0.0 0.0 0.0 0.0 0.0 0.0 0.0 0.0 0.0 0.0 0.0 0.0 0.0 0.0 0.0 0.0 0.0 0.0 0.0 0.0 0.0 0.0 0.0 0.0 0.0 0.0 0.0 0.0 0.0 0.0 0.0 0.0 0.0 0.0 0.0 0.0 0.0 0.0 0.0 0.0 0.0 0.0 0.0 0.0 0.0 0.0 0.0 0.0 0.0 0.0 0.0 0.0 0.0 0.0 0.0 0.0 0.0 0.0 0.0 0.0 0.0 0.0 0.0 0.0 0.0 0.0 0.0 0.0 0.0 0.0 0.0 0.0 0.0 0.0 0.0 0.0 0.0 0.0
0.0 0.0 0.0 0.0 0.0 0.0 0.0 0.0 0.0 0.0 0.0 0.0 0.0 0.0 0.0 0.0 0.0 0.0 0.0 0.0 0.0 0.0 0.0 0.0 0.0 0.0 0.0 0.0 0.0 0.0 0.0 0.0 0.0 0.0 0.0 0.0 0.0 0.0 0.0 0.0 0.0 0.0 0.0 0.0 0.0 0.0 0.0 0.0 0.0 0.0 0.0 0.0 0.0 0.0 0.0 0.0 0.0 0.0 0.0 0.0 0.0 0.0 0.0 0.0 0.0 0.0 0.0 0.0 0.0 0.0 0.0 0.0 0.0 0.0 0.0 0.0 0.0 0.0 0.0 0.0 0.0 0.0 0.0 0.0 0.0 0.0 0.0 0.0
0.0 0.0 0.0 0.0 0.0 0.0 0.0 0.0 0.0 0.0 0.0 0.0 0.0 0.0 0.0 0.0 0.0 0.0 0.0 0.0 0.0 0.0 0.0 0.0 0.0 0.0 0.0 0.0 0.0 0.2 0.0 0.0 0.0 0.0 0.0 0.0 0.0 0.0 0.0 0.0 0.0 0.0 0.0 0.0 0.0 0.0 0.0 0.0 0.0 0.0 0.0 0.0 0.0 0.0 0.0 0.0 0.0 0.0 0.0 0.0 0.0 0.0 0.0 0.0 0.0 0.0 0.0 0.0 0.0 0.0 0.0 0.0 0.0 0.0 0.0 0.0 0.0 0.0 0.0 0.0 0.0 0.0 0.0 0.0 0.0 0.0 0.0 0.0
0.0 0.0 0.0 0.0 0.0 0.0 0.0 0.0 0.0 0.0 0.0 0.0 0.0 0.0 0.0 0.0 0.0 0.0 0.0 0.0 0.0 0.0 0.0 0.0 0.0 0.0 0.0 0.0 0.0 0.0 0.0 0.0 0.0 0.0 0.0 0.0 0.0 0.0 0.0 0.0 0.0 0.0 0.0 0.0 0.0 0.0 0.0 0.0 0.0 0.0 0.0 0.0 0.0 0.0 0.0 0.0 0.0 0.0 0.0 0.0 0.0 0.0 0.0 0.0 0.0 0.0 0.0 0.0 0.0 0.0 0.0 0.0 0.0 0.0 0.0 0.0 0.0 0.0 0.0 0.0 0.0 0.0 0.0 0.0 0.0 0.0 0.0 0.0
0.0 0.0 0.0 0.0 0.0 0.0 0.0 0.0 0.0 0.0 0.0 0.0 0.0 0.0 0.0 0.0 0.0 0.0 0.0 0.0 0.0 0.0 0.0 0.0 0.0 0.0 0.0 0.0 0.0 0.0 0.0 0.0 0.0 0.0 0.0 0.0 0.0 0.0 0.0 0.0 0.0 0.0 0.0 0.0 0.0 0.0 0.0 0.0 0.0 0.0 0.0 0.0 0.0 0.0 0.0 0.0 0.0 0.0 0.0 0.0 0.0 0.0 0.0 0.0 0.0 0.0 0.0 0.0 0.0 0.0 0.0 0.0 0.0 0.0 0.0 0.0 0.0 0.0 0.0 0.0 0.0 0.0 0.0 0.0 0.0 0.0 0.0 0.0
0.0 0.0 0.0 0.0 0.0 0.0 0.0 0.0 0.0 0.0 0.0 0.0 0.0 0.0 0.0 0.0 0.0 0.0 0.0 0.0 0.0 0.0 0.0 0.0 0.0 0.0 0.0 0.0 0.0 0.0 0.0 0.0 0.0 0.0 0.0 0.0 0.0 0.0 0.0 0.0 0.0 0.0 0.0 0.0 0.0 0.0 0.0 0.0 0.0 0.0 0.0 0.0 0.0 0.0 0.0 0.0 0.0 0.0 0.0 0.0 0.0 0.0 0.0 0.0 0.0 0.0 0.0 0.0 0.0 0.0 0.0 0.0 0.0 0.0 0.0 0.0 0.0 0.0 0.0 0.0 0.0 0.0 0.0 0.0 0.0 0.0 0.0 0.0
0.0 0.0 0.0 0.0 0.0 0.0 0.0 0.0 0.0 0.0 0.0 0.0 0.0 0.0 0.0 0.0 0.0 0.0 0.0 0.0 0.0 0.0 0.0 0.0 0.0 0.0 0.0 0.0 0.0 0.0 0.0 0.0 0.0 0.0 0.0 0.0 0.0 0.0 0.0 0.0 0.0 0.0 0.0 0.0 0.0 0.0 0.0 0.0 0.0 0.0 0.0 0.0 0.0 0.0 0.0 0.0 0.0 0.0 0.0 0.0 0.0 0.0 0.0 0.0 0.0 0.0 0.0 0.0 0.0 0.0 0.0 0.0 0.0 0.0 0.0 0.0 0.0 0.0 0.0 0.0 0.0 0.0 0.0 0.0 0.0 0.0 0.0 0.0
0.0 0.0 0.0 0.0 0.0 0.0 0.0 0.0 0.0 0.0 0.0 0.0 0.0 0.0 0.0 0.0 0.0 0.0 0.0 0.0 0.0 0.0 0.0 0.0 0.0 0.0 0.0 0.0 0.0 0.0 0.0 0.0 0.0 0.0 0.0 0.0 0.0 0.0 0.0 0.0 0.0 0.0 0.0 0.0 0.0 0.0 0.0 0.0 0.0 0.0 0.0 0.0 0.0 0.0 0.0 0.0 0.0 0.0 0.0 0.0 0.0 0.0 0.0 0.0 0.0 0.0 0.0 0.0 0.0 0.0 0.0 0.0 0.0 0.0 0.0 0.0 0.0 0.0 0.0 0.0 0.0 0.0 0.0 0.0 0.0 0.0 0.0 0.0
0.0 0.0 0.0 0.0 0.0 0.0 0.0 0.0 0.0 0.0 0.0 0.0 0.0 0.0 0.0 0.0 0.0 0.0 0.0 0.0 0.0 0.0 0.0 0.0 0.0 0.0 0.0 0.0 0.0 0.0 0.0 0.0 0.0 0.0 0.0 0.0 0.0 0.0 0.0 0.0 0.0 0.0 0.0 0.0 0.0 0.0 0.0 0.0 0.0 0.0 0.0 0.0 0.0 0.0 0.0 0.0 0.0 0.0 0.0 0.1 0.1 0.1 0.0 0.0 0.0 0.0 0.0 0.0 0.0 0.0 0.0 0.0 0.0 0.0 0.0 0.0 0.0 0.0 0.0 0.0 0.0 0.0 0.0 0.0 0.0 0.0 0.0 0.0
0.0 0.0 0.0 0.0 0.0 0.0 0.0 0.0 0.0 0.0 0.0 0.0 0.0 0.0 0.0 0.0 0.0 0.0 0.0 0.0 0.0 0.0 0.0 0.0 0.0 0.0 0.3 0.0 0.0 0.0 0.0 0.0 0.0 0.0 0.0 0.0 0.0 0.0 0.0 0.0 0.0 0.0 0.0 0.0 0.0 0.0 0.0 0.0 0.0 0.0 0.0 0.0 0.0 0.0 0.0 0.8 0.5 0.0 0.0 0.0 0.0 0.0 0.0 0.0 0.0 0.0 0.0 0.0 0.0 0.0 0.0 0.0 0.0 0.0 0.0 0.0 0.0 0.0 0.0 0.0 0.0 0.0 0.0 0.0 0.0 0.0 0.0 0.0
0.0 0.0 0.0 0.0 0.0 0.0 0.0 0.0 0.0 0.0 0.0 0.0 0.0 0.0 0.0 0.0 0.0 0.0 0.0 0.0 0.0 0.0 0.0 0.0 0.0 0.0 0.0 0.0 0.0 0.0 0.0 0.0 0.0 0.0 0.0 0.0 0.0 0.0 0.0 0.0 0.0 0.0 0.0 0.0 0.0 0.0 0.0 0.0 0.0 0.0 0.0 0.0 0.0 0.0 0.6 6.3 0.4 0.2 0.1 0.0 0.0 0.0 0.0 0.0 0.0 0.0 0.0 0.0 0.0 0.0 0.0 0.0 0.0 0.0 0.0 0.0 0.0 0.0 0.0 0.0 0.0 0.0 0.0 0.0 0.0 0.0 0.0 0.0
0.0 0.0 0.0 0.0 0.0 0.0 0.0 0.0 0.0 0.0 0.0 0.0 0.0 0.0 0.0 0.0 0.0 0.0 0.0 0.0 0.0 0.0 0.0 0.0 0.0 2.9 2.4 0.3 0.0 0.0 0.0 0.0 0.0 0.0 0.0 0.0 0.0 0.0 0.0 0.0 0.0 0.0 0.0 0.0 0.0 0.0 0.0 0.0 0.0 0.0 0.0 0.0 0.0 0.0 0.0 0.0 0.0 0.0 0.0 0.0 0.0 0.0 0.0 0.0 0.0 0.0 0.0 0.0 0.0 0.0 0.0 0.0 0.0 0.0 0.0 0.0 0.0 0.0 0.0 0.0 0.0 0.0 0.0 0.0 0.0 0.0 0.0 0.0
0.0 0.0 0.0 0.0 0.0 0.0 0.0 0.0 0.0 0.0 0.0 0.0 0.0 0.0 0.0 0.0 0.0 0.0 0.0 0.0 0.0 0.0 0.0 0.1 0.0 0.0 0.0 0.0 0.0 0.0 0.0 0.0 0.0 0.0 0.0 0.0 0.0 0.0 0.0 0.0 0.0 0.0 0.0 0.0 0.0 0.0 0.0 0.0 0.2 0.1 0.0 0.0 0.0 0.0 0.0 0.0 0.0 0.0 0.0 0.0 0.0 0.0 0.0 0.0 0.0 0.0 0.0 0.0 0.0 0.0 0.0 0.0 0.0 0.0 0.0 0.0 0.0 0.0 0.0 0.0 0.0 0.0 0.0 0.0 0.0 0.0 0.0 0.0
0.0 0.0 0.0 0.0 0.0 0.0 0.0 0.0 0.0 0.0 0.0 0.0 0.0 0.0 0.0 0.0 0.5 2.2 0.0 0.0 0.0 0.0 0.0 0.0 0.0 0.0 0.0 0.0 0.0 0.0 0.0 0.0 0.0 0.0 0.0 0.0 0.0 0.0 0.0 0.0 0.0 0.0 0.0 0.0 0.0 0.0 0.0 0.0 0.0 0.0 0.0 0.0 0.0 0.0 0.0 0.0 0.0 0.0 0.0 0.0 0.0 0.0 0.0 0.0 0.0 0.0 0.0 0.0 0.0 0.0 0.0 0.0 0.0 0.0 0.0 0.0 0.0 0.0 0.0 0.0 0.0 0.0 0.0 0.0 0.0 0.0 0.0 0.0
0.0 0.0 0.0 0.0 0.0 0.0 0.0 0.0 0.0 0.0 0.0 0.0 0.0 0.0 0.0 0.0 0.0 0.0 0.0 0.1 0.0 0.0 0.0 0.0 0.0 0.0 0.0 0.0 0.0 0.0 0.0 0.0 0.0 0.0 0.0 0.0 0.0 0.0 0.0 0.0 0.3 0.1 0.0 0.0 0.0 0.0 0.0 0.3 0.0 0.0 0.0 0.0 0.0 0.0 0.0 0.0 0.0 0.0 0.0 0.0 0.0 0.0 0.0 0.0 0.0 0.0 0.0 0.0 0.0 0.0 0.0 0.0 0.0 0.0 0.0 0.0 0.0 0.0 0.0 0.0 0.0 0.0 0.0 0.0 0.0 0.0 0.0 0.0
0.0 0.0 0.0 0.0 0.0 0.0 0.0 0.0 0.0 0.0 0.0 0.0 0.0 0.0 0.0 0.0 0.0 0.0 0.0 0.1 0.0 0.0 0.0 0.0 0.0 0.0 0.0 0.0 0.0 0.0 0.0 0.0 0.0 0.0 0.0 0.0 0.0 0.0 0.0 0.0 0.2 0.8 0.0 0.0 0.3 0.6 2.6 0.0 0.0 0.0 0.0 0.0 0.0 0.0 0.0 0.0 0.0 0.0 0.1 0.3 0.4 0.0 0.0 0.0 0.0 0.0 0.0 0.0 0.0 0.0 0.0 0.0 0.0 0.0 0.0 0.0 0.0 0.0 0.0 0.0 0.0 0.0 0.0 0.0 0.0 0.0 0.0 0.0
0.0 0.0 0.0 0.0 0.0 0.0 0.0 0.0 0.0 0.0 0.0 0.0 0.0 0.0 0.0 0.0 0.0 0.0 0.0 2.7 3.9 0.0 0.0 0.0 0.0 0.0 0.0 0.0 0.0 0.0 0.0 0.0 0.0 0.0 0.0 0.0 0.0 0.0 0.0 0.0 0.4 0.1 0.4 0.0 0.0 0.0 0.1 0.0 0.0 0.0 0.0 0.0 0.0 0.0 0.0 0.0 0.0 0.0 0.0 0.1 0.1 0.0 0.0 0.0 0.0 0.0 0.0 0.0 0.0 0.0 0.0 0.0 0.0 0.0 0.0 0.0 0.0 0.0 0.0 0.0 0.0 0.0 0.0 0.0 0.0 0.0 0.0 0.0
0.0 0.0 0.0 0.0 0.0 0.0 0.0 0.0 0.0 0.0 0.0 0.0 0.0 0.0 0.0 0.0 0.0 0.0 0.0 0.4 0.0 1.1 0.0 0.0 0.0 0.0 0.0 0.0 0.0 0.0 0.0 0.0 0.0 0.0 0.0 0.0 0.0 0.0 0.0 0.0 0.0 0.7 2.3 0.0 0.3 0.0 0.1 0.0 0.0 0.0 0.0 0.0 0.0 0.0 0.0 0.0 0.0 0.1 0.0 0.0 0.0 0.0 0.0 0.0 0.0 0.0 0.1 0.1 0.0 0.0 1.2 0.5 0.0 0.0 0.0 0.0 0.0 0.0 0.0 0.0 0.0 0.0 0.0 0.0 0.0 0.0 0.0 0.0
0.0 0.0 0.0 0.0 0.0 0.0 0.0 0.0 0.0 0.0 0.0 0.0 0.0 0.0 0.0 0.0 0.0 0.0 0.1 18.6 28.7 1.0 0.0 1.8 0.0 0.0 0.0 0.0 0.0 0.0 0.0 0.2 0.0 0.0 0.0 0.0 0.0 0.0 0.0 0.1 0.0 1.0 0.8 0.0 0.0 0.0 0.2 0.0 0.0 0.0 0.0 0.0 0.0 0.0 0.0 0.0 0.0 0.1 0.0 0.0 0.0 0.0 0.0 0.0 0.0 0.0 2.9 2.3 0.0 0.0 0.7 0.8 0.0 0.0 0.0 0.0 0.0 0.0 0.0 0.0 0.0 0.0 0.0 0.0 0.0 0.0 0.0 0.0
0.0 0.0 0.0 0.0 0.0 0.0 0.0 0.0 0.0 0.0 0.0 0.0 0.0 0.0 0.0 0.0 0.0 0.0 0.5 36.1 40.8 0.5 4.7 0.1 0.0 0.5 0.0 0.0 0.0 0.0 4.4 0.6 0.0 0.0 0.0 0.0 0.0 0.0 0.0 0.0 0.0 0.0 0.0 0.0 0.1 3.2 0.0 0.0 0.0 0.0 0.0 0.1 0.0 0.0 0.0 0.0 0.0 0.1 0.0 0.0 0.0 0.0 0.0 0.0 0.0 0.2 2.3 0.0 0.0 0.0 0.0 1.1 0.6 0.0 0.0 0.0 0.0 0.0 0.0 0.0 0.0 0.0 0.0 0.0 0.0 0.0 0.0 0.0
0.0 0.0 0.0 0.0 0.0 0.0 0.0 0.0 0.0 0.0 0.0 0.0 0.0 0.0 0.0 0.0 0.0 0.0 3.0 85.7 74.5 3.0 4.7 0.5 0.0 0.0 0.0 0.0 0.0 0.0 0.6 3.1 0.1 0.0 0.0 0.0 0.0 0.0 0.0 0.1 0.0 0.4 0.3 0.0 7.7 3.9 0.0 0.1 0.0 0.0 0.0 0.1 0.0 0.0 0.0 0.0 0.0 0.1 0.0 0.0 0.0 0.0 0.0 0.0 0.1 0.3 0.3 0.8 3.1 0.4 0.0 0.8 0.5 0.0 0.0 0.0 0.0 0.0 0.0 0.0 0.0 0.0 0.0 0.0 0.0 0.0 0.0 0.0
0.0 0.0 0.0 0.0 0.0 0.0 0.0 0.0 0.0 0.0 0.0 0.0 0.0 0.0 0.0 0.0 0.0 0.7 42.3 88.6 21.4 18.3 0.0 0.8 0.0 0.0 0.0 0.0 0.0 0.0 0.1 0.0 0.9 0.1 0.0 0.0 0.0 0.0 0.1 0.1 0.0 0.0 0.0 0.0 0.6 1.7 0.5 0.0 0.0 0.0 0.0 0.1 0.0 0.0 0.0 0.0 0.0 0.0 0.0 0.0 0.0 0.0 0.0 0.0 0.2 0.1 0.5 3.2 5.5 0.7 0.0 0.6 0.2 0.0 0.0 0.0 0.0 0.0 0.0 0.0 0.0 0.0 0.0 0.0 0.0 0.0 0.0 0.0
0.0 0.0 0.0 0.0 0.0 0.0 0.0 0.0 0.0 0.0 0.0 0.0 0.0 0.0 0.0 0.0 0.8 32.8 87.4 107.2 8.4 30.0 3.5 2.4 0.6 0.5 0.0 0.4 0.0 0.0 1.0 0.8 2.2 2.6 0.0 0.0 0.0 0.0 0.0 0.0 0.0 0.8 0.0 0.0 0.1 0.1 1.0 0.0 0.0 0.0 0.0 0.0 0.0 0.0 0.0 0.0 0.0 0.0 0.0 0.0 0.1 0.2 1.0 3.3 2.4 1.7 6.1 11.3 4.3 0.0 0.0 0.0 0.4 0.0 0.0 0.0 0.0 0.0 0.0 0.0 0.0 0.0 0.0 0.0 0.0 0.0 0.0 0.0
0.0 0.0 0.0 0.0 0.0 0.0 0.0 0.0 0.0 0.0 0.0 0.0 0.0 0.0 0.0 1.7 26.1 67.4 105.1 51.0 12.3 14.4 1.8 1.8 3.2 0.0 2.3 0.7 5.4 0.8 2.1 1.5 2.4 1.4 6.0 0.0 0.0 0.0 0.0 0.4 0.0 1.3 1.5 0.4 0.1 0.0 0.0 0.0 0.0 0.0 0.0 0.0 0.0 0.0 0.0 0.0 0.0 0.0 0.2 0.3 0.3 2.4 1.5 2.9 6.0 4.8 13.3 12.2 1.2 0.0 0.0 0.0 2.6 0.0 0.0 0.0 0.0 0.0 0.0 0.0 0.0 0.0 0.0 0.0 0.0 0.0 0.0 0.0
0.0 0.0 0.0 0.0 0.0 0.0 0.0 0.0 0.0 0.0 0.0 0.0 0.0 0.0 0.3 58.1 29.5 77.6 72.2 0.3 27.8 15.2 9.0 10.4 3.7 2.7 2.5 0.7 0.8 2.3 1.9 2.5 1.8 0.9 1.3 2.2 1.7 1.9 0.1 4.1 0.7 22.1 24.9 11.1 7.9 0.1 0.1 0.1 0.5 0.0 0.0 0.0 0.0 0.0 0.0 0.0 0.0 0.0 0.2 0.3 3.9 5.3 4.3 8.5 6.1 13.9 9.7 6.4 0.4 0.0 0.0 2.0 1.0 0.0 0.0 0.0 0.0 0.0 0.0 0.0 0.0 0.0 0.0 0.0 0.0 0.0 0.0 0.0
0.0 0.0 0.0 0.0 0.0 0.0 0.0 0.0 0.0 0.0 0.0 0.0 0.0 1.0 18.4 68.7 121.0 36.9 42.3 20.0 24.8 8.2 9.4 1.4 2.4 4.3 3.3 2.6 5.5 2.7 1.4 2.8 0.6 1.8 1.3 2.3 2.1 1.6 0.9 0.1 13.4 0.7 24.6 5.3 5.5 2.7 1.0 0.0 0.0 0.0 0.0 0.0 0.0 0.2 0.4 0.9 0.1 0.2 0.4 1.4 6.8 8.9 10.5 5.1 4.1 2.2 1.3 0.4 0.1 0.0 0.0 0.8 0.0 0.0 0.0 0.0 0.0 0.0 0.0 0.0 0.0 0.0 0.0 0.0 0.0 0.0 0.0 0.0
0.0 0.0 0.0 0.0 0.0 0.0 0.0 0.0 0.0 0.0 0.0 0.0 0.0 6.7 27.9 82.4 78.4 6.9 17.6 16.0 22.4 1.6 2.1 2.1 1.8 3.8 6.1 6.1 4.6 2.8 5.1 1.9 2.6 1.0 0.4 1.6 0.8 5.8 5.6 0.1 0.9 3.6 8.0 10.0 8.0 4.6 12.3 12.3 0.4 0.0 0.6 0.0 0.0 0.0 0.0 0.0 0.0 0.1 0.0 0.0 0.7 1.0 2.7 4.4 1.3 2.0 1.2 0.3 0.0 0.0 2.1 2.3 0.2 0.2 0.0 0.0 0.0 0.0 0.0 0.0 0.0 0.0 0.0 0.0 0.0 0.0 0.0 0.0
0.0 0.0 0.0 0.0 0.0 0.0 0.0 0.0 0.0 0.0 0.0 0.0 2.6 24.0 97.3 84.8 30.4 39.8 20.9 14.6 7.6 2.2 2.3 8.3 5.3 5.9 11.0 6.4 5.3 2.8 1.6 7.0 1.4 2.6 1.1 1.2 6.3 1.7 1.8 2.6 1.1 0.7 10.3 12.2 6.6 5.3 2.0 1.3 0.0 0.0 0.0 0.0 0.0 0.0 0.0 0.1 0.2 6.4 1.8 0.9 3.2 0.7 0.1 1.3 0.1 0.0 0.0 0.0 0.0 0.1 0.3 1.3 0.0 0.0 0.0 0.0 0.0 0.0 0.0 0.0 0.0 0.0 0.0 0.0 0.0 0.0 0.0 0.0
0.0 0.0 0.0 0.0 0.0 0.0 0.0 0.0 0.0 0.0 0.0 0.1 18.0 83.7 82.0 25.8 39.2 14.2 11.6 0.4 1.0 4.5 4.7 3.5 9.4 11.2 16.4 10.3 2.7 7.1 0.7 5.1 2.4 1.4 4.4 0.8 0.9 0.8 0.7 0.6 0.6 1.0 3.2 7.1 8.8 13.9 4.3 3.5 0.0 0.0 0.0 0.0 0.0 0.0 0.0 0.0 4.2 0.2 0.1 4.7 0.2 0.0 0.0 2.1 0.5 0.1 1.8 0.1 0.2 0.4 0.0 0.0 0.0 0.0 0.0 0.0 0.0 0.0 0.0 0.0 0.0 0.0 0.0 0.0 0.0 0.0 0.0 0.0
0.0 0.0 0.0 0.0 0.0 0.0 0.0 0.0 0.0 0.0 0.0 0.6 25.0 78.2 19.7 17.7 5.9 4.8 0.2 0.6 0.6 1.8 2.8 16.3 23.3 12.9 20.9 17.6 13.6 7.2 6.0 1.1 6.8 2.2 11.4 0.7 7.8 0.7 0.7 0.6 0.2 0.5 0.6 0.3 5.4 3.1 8.8 4.6 1.6 0.0 0.0 0.0 0.0 0.0 0.0 0.0 0.0 0.0 3.5 0.0 0.0 1.2 2.3 3.3 6.9 1.7 2.3 3.0 0.6 0.0 0.0 0.0 0.0 0.0 0.0 0.0 0.0 0.0 0.0 0.0 0.0 0.0 0.0 0.0 0.0 0.0 0.0 0.0
0.0 0.0 0.0 0.0 0.0 0.0 0.0 0.0 0.0 0.0 0.1 6.2 40.0 11.4 9.8 12.1 0.9 0.8 0.0 0.1 0.1 0.6 5.1 5.1 9.4 3.4 15.1 14.0 16.4 9.0 6.8 5.4 7.4 3.0 7.4 1.7 12.6 0.6 0.6 0.5 0.2 0.2 0.1 0.3 1.3 4.0 0.6 6.3 1.6 0.0 0.0 0.0 0.0 0.0 0.0 0.0 0.0 0.0 0.1 0.0 0.0 15.7 8.5 5.8 10.2 21.3 10.8 10.7 3.1 0.1 0.0 0.0 0.0 0.0 0.0 0.0 0.0 0.0 0.0 0.0 0.0 0.0 0.0 0.0 0.0 0.0 0.0 0.0
0.0 0.0 0.8 0.0 0.0 0.0 0.0 0.0 0.0 0.1 2.1 28.3 32.9 23.7 10.7 7.8 0.3 1.1 0.0 0.0 0.0 0.7 2.6 1.5 6.0 5.4 4.4 9.0 8.0 10.6 5.8 8.7 4.7 3.6 7.5 9.0 6.9 1.6 0.8 0.2 0.2 0.0 0.0 0.0 1.1 2.5 0.3 6.2 3.4 0.0 0.0 2.0 4.3 3.6 9.6 0.1 0.0 0.3 0.0 0.1 2.1 0.2 1.7 5.3 1.3 1.7 2.1 6.2 10.6 3.4 0.2 0.5 0.0 0.0 0.0 0.0 0.0 0.0 0.0 0.0 0.0 0.0 0.0 0.0 0.0 0.0 0.0 0.0
0.0 1.3 4.3 0.0 0.0 0.0 0.0 0.0 0.0 0.4 10.0 48.2 20.7 14.3 3.6 12.3 2.1 0.1 0.0 0.0 0.8 1.2 1.3 1.3 0.9 4.8 3.7 3.9 3.4 10.1 7.1 5.0 5.3 9.0 2.3 7.1 1.8 2.6 1.1 0.1 0.2 0.0 0.0 0.0 0.4 0.9 5.3 1.2 8.1 2.8 0.0 0.1 4.4 1.6 1.4 0.3 2.0 2.4 5.3 13.2 2.7 2.7 1.8 1.7 8.0 5.4 5.1 5.2 2.1 1.5 1.5 0.1 0.0 0.0 0.0 0.0 0.0 0.0 0.0 0.0 0.0 0.0 0.0 0.0 0.0 0.0 0.0 0.0
0.0 0.8 3.2 0.0 0.0 0.0 0.0 0.0 4.2 21.5 20.4 10.7 6.4 8.0 5.2 7.2 2.6 0.1 0.0 0.0 0.0 0.0 0.6 0.2 0.3 2.6 2.8 2.8 5.0 2.1 8.1 7.8 6.5 11.0 6.4 5.0 1.0 5.5 0.5 0.9 0.0 0.5 0.0 0.0 0.4 1.4 7.1 9.0 8.9 5.2 7.0 8.8 0.3 1.2 0.0 0.0 0.1 4.2 4.6 2.5 2.2 3.3 4.8 11.5 11.1 0.6 2.3 6.3 4.4 4.5 2.3 0.1 0.0 0.0 0.0 0.0 0.0 0.0 0.0 0.0 0.0 0.0 0.0 0.0 0.0 0.0 0.0 0.1
0.9 10.6 6.9 0.0 0.0 0.0 0.0 18.1 19.8 8.3 13.9 16.4 17.2 5.9 6.5 0.0 1.8 2.3 0.0 0.0 0.0 0.7 0.0 9.1 0.6 1.8 1.3 1.1 0.9 2.0 4.6 5.7 4.0 3.2 4.8 4.3 3.7 2.9 1.3 0.0 0.0 0.0 1.5 2.2 1.1 0.4 1.1 9.7 8.9 10.7 5.5 2.9 0.1 0.2 0.2 0.0 0.1 0.1 1.3 1.5 0.7 4.9 4.0 9.9 16.2 5.0 5.6 4.9 1.1 3.6 8.6 1.1 0.0 -0.0 -0.0 0.0 0.0 0.0 0.0 0.0 0.0 0.0 0.0 0.0 0.0 0.0 0.0 0.1
3.4 7.6 0.0 0.0 0.0 0.0 0.1 15.7 13.2 21.8 18.6 7.7 1.6 1.1 0.0 0.3 1.3 0.1 0.6 0.0 1.0 0.0 0.6 1.3 6.8 3.6 0.9 1.6 1.8 2.0 1.0 5.7 3.1 4.2 1.5 1.6 1.3 0.8 0.0 0.0 0.0 0.0 0.0 1.1 0.2 0.2 2.1 15.5 19.1 8.8 5.2 3.0 0.2 0.1 8.6 5.2 0.8 0.5 0.1 0.1 0.4 1.3 1.0 2.6 2.3 4.2 11.0 8.1 14.7 11.3 22.4 4.3 0.2 0.0 -0.0 0.0 0.0 0.0 0.0 0.0 0.0 0.0 0.0 0.0 0.0 0.0 0.0 0.0
4.5 5.4 1.2 0.0 0.0 0.0 2.2 46.6 49.8 22.5 13.7 9.6 2.1 3.2 1.2 1.3 1.6 2.3 0.8 0.4 1.2 1.0 0.5 1.0 0.4 0.4 4.0 1.5 2.8 2.9 0.7 9.6 1.8 1.9 3.0 0.9 1.3 0.0 0.0 0.0 0.0 1.1 1.4 2.0 0.2 5.1 4.6 13.0 7.7 16.2 17.0 12.4 6.3 4.2 3.3 4.2 3.1 7.6 2.5 0.1 0.2 0.5 0.6 1.5 5.7 12.9 16.1 4.6 3.9 12.1 16.6 4.2 0.2 0.1 0.7 0.5 0.1 0.7 0.0 0.0 0.0 0.0 0.0 0.0 0.0 0.0 0.0 0.0
2.7 1.5 4.3 2.1 0.0 0.0 12.6 7.4 9.6 12.8 11.7 8.4 5.5 4.9 2.5 1.6 0.1 0.0 0.2 0.3 0.0 1.2 0.4 0.5 0.2 0.2 0.2 2.0 9.1 1.8 4.1 0.9 4.6 1.9 1.5 1.9 0.5 0.0 0.0 0.0 0.0 0.7 0.0 0.0 0.0 0.0 2.3 5.3 11.6 23.5 32.0 33.5 32.9 30.6 21.5 13.0 6.7 2.8 1.1 0.1 0.2 0.9 1.1 4.1 11.6 7.9 16.3 7.2 3.3 7.2 4.5 0.2 0.0 0.2 0.0 0.0 0.4 0.0 0.1 0.2 0.5 0.0 0.2 0.0 0.0 0.0 0.0 0.0
5.2 31.6 10.4 19.1 12.1 4.3 4.6 4.3 2.6 5.2 8.7 8.5 9.7 4.5 2.1 2.8 0.9 0.1 0.0 4.3 0.2 0.0 0.2 1.1 0.2 0.0 1.3 1.5 4.6 10.7 2.9 4.6 4.9 9.5 3.6 4.9 2.4 0.5 0.0 0.0 0.0 0.0 0.0 0.0 0.0 0.0 5.4 6.0 5.6 7.1 9.5 10.0 4.0 2.8 1.3 0.4 2.7 6.4 3.1 1.3 0.5 0.2 0.7 1.9 5.2 15.2 17.0 7.2 8.6 3.7 2.4 1.3 0.5 0.0 0.0 0.3 1.4 0.2 0.4 0.2 0.2 0.0 0.0 0.0 0.0 0.0 0.0 0.0
2.4 16.8 19.6 57.4 19.4 14.9 9.5 3.9 4.2 4.1 6.1 1.7 11.4 2.9 4.5 2.7 1.2 0.6 0.0 4.1 0.0 0.5 0.7 0.3 0.9 0.7 1.2 0.9 2.4 3.7 4.9 4.7 2.2 4.7 6.0 2.5 2.4 2.1 0.0 0.0 0.0 0.0 0.0 0.0 0.0 1.1 14.3 10.8 5.6 4.4 4.1 2.8 1.8 5.1 0.3 0.1 1.8 0.9 1.3 1.1 0.3 0.4 0.4 3.1 9.3 10.6 3.1 8.1 13.5 3.1 2.2 3.8 1.1 0.1 2.0 0.7 1.6 0.7 0.7 0.0 0.0 0.0 0.0 0.0 0.0 0.0 0.0 0.0
16.9 4.9 4.8 7.8 21.2 51.4 24.2 13.9 2.7 3.8 3.1 1.7 3.9 1.4 2.0 2.4 2.0 3.8 0.5 0.2 0.4 0.0 1.3 2.7 1.7 0.1 0.0 0.5 0.6 5.2 4.0 7.8 5.3 3.7 1.6 2.9 3.0 2.4 2.4 0.0 0.3 0.0 0.0 0.3 0.0 1.2 14.1 11.8 3.6 2.9 3.6 1.8 1.2 0.8 0.3 0.2 0.5 0.6 0.5 0.6 0.6 0.2 0.4 4.0 3.0 0.5 1.1 10.0 9.8 1.4 0.6 1.7 0.5 0.9 1.5 0.9 0.3 0.3 0.1 0.1 0.1 0.1 0.0 0.0 0.0 0.0 0.0 0.0
3.6 4.5 3.6 3.0 10.1 10.5 4.0 2.6 1.4 2.7 3.5 2.4 5.7 2.7 3.1 1.9 2.2 0.7 1.4 2.0 0.8 3.0 0.1 5.4 1.5 0.2 0.2 1.5 0.9 2.8 2.4 10.2 11.3 5.9 3.8 3.1 2.8 3.7 4.9 4.0 0.7 0.0 0.0 2.5 0.5 1.9 7.2 10.6 4.1 2.4 4.3 2.6 1.4 0.9 0.5 0.9 0.7 0.5 0.7 0.3 0.1 0.1 0.3 0.5 0.2 0.0 0.8 2.5 0.9 0.7 0.4 0.4 1.5 1.3 0.7 1.0 1.2 2.2 1.5 0.1 0.1 0.1 0.0 0.0 0.0 0.0 0.0 0.0
8.7 6.0 11.6 2.6 2.7 3.2 3.3 2.3 1.4 2.2 6.5 1.4 13.6 6.5 3.3 1.9 2.2 1.2 1.0 1.1 6.4 1.4 0.0 1.5 0.3 0.5 1.1 1.0 1.3 3.1 1.7 1.3 2.6 6.1 3.5 2.9 6.8 1.9 2.8 1.9 4.0 3.3 0.5 4.1 4.9 5.0 4.5 10.0 1.7 3.4 6.9 6.8 2.5 1.2 0.7 0.9 1.2 1.9 0.7 0.3 0.3 0.3 0.5 0.4 0.3 0.3 0.4 0.8 0.3 1.5 3.1 1.0 1.0 1.1 0.6 0.3 0.3 0.1 0.1 0.1 0.1 0.0 0.0 0.0 0.0 0.0 0.0 0.0
2.8 1.2 4.0 7.4 10.0 6.0 3.3 4.1 4.3 4.2 8.6 6.0 8.2 3.0 2.1 1.5 2.1 0.8 1.3 0.0 0.3 1.8 1.3 1.2 1.5 1.3 3.1 2.2 1.8 1.2 1.1 3.2 3.9 3.7 2.6 2.8 6.1 4.3 3.8 6.0 1.7 5.7 4.8 6.6 6.7 10.1 7.0 14.2 5.3 7.2 15.9 11.5 3.4 3.5 2.1 2.2 2.8 3.4 2.7 2.0 2.6 2.3 2.9 0.6 1.7 0.2 0.9 1.1 0.4 0.6 2.9 0.9 1.0 0.6 0.3 0.1 0.1 0.0 0.0 0.0 0.0 0.0 0.0 0.0 0.0 0.0 0.0 0.0
0.4 0.3 0.3 4.7 14.4 4.7 8.4 3.1 4.0 9.0 24.1 5.1 2.1 2.0 1.6 0.9 0.2 1.0 2.6 0.2 0.2 0.1 0.2 0.6 1.0 1.4 4.0 2.8 2.2 2.0 3.0 3.9 2.9 1.9 1.5 1.2 0.9 1.0 0.9 1.0 0.9 4.6 8.7 7.3 9.0 17.5 14.9 16.9 15.5 13.9 23.5 15.8 3.5 2.5 3.1 4.0 7.0 11.2 7.8 1.2 1.1 0.8 0.0 0.0 0.0 0.0 0.1 0.1 1.0 2.6 2.6 3.2 2.0 0.9 0.7 0.7 0.8 1.0 0.7 0.2 0.2 0.3 0.1 0.1 0.1 0.0 0.0 0.0